EW4582 Weather Reports


Display with metric or nautical units.
time (UTC)temp
F
wind
direction
speed
MPH
gust
MPH
rain 1hr
in
rain 24hr
in
rain mn
in
humidity
%
barometer
mb
20260503184923 60 138 1.0 3.0 0.00 0.02 0.02 77 1016.1
20260503184420 61 246 0.0 0.0 0.00 0.02 0.02 76 1015.8
20260503183916 60 207 2.0 3.0 0.00 0.02 0.02 77 1015.8
20260503183412 60 265 1.0 2.0 0.00 0.02 0.02 77 1015.8
20260503182909 59 183 2.0 3.0 0.00 0.02 0.02 77 1016.1
20260503182409 60 135 1.0 1.0 0.00 0.02 0.02 77 1016.1
20260503181900 59 322 1.0 1.0 0.00 0.02 0.02 79 1015.8
20260503181357 58 173 1.0 1.0 0.00 0.02 0.02 80 1015.8
20260503180853 58 280 1.0 2.0 0.00 0.02 0.02 82 1015.8
20260503180351 57 205 0.0 0.0 0.00 0.02 0.02 84 1016.1
20260503175848 57 215 1.0 1.0 0.00 0.02 0.02 83 1015.8
20260503175346 56 290 0.0 0.0 0.00 0.02 0.02 86 1015.8
20260503174841 56 213 0.0 1.0 0.00 0.02 0.02 86 1015.8
20260503174339 55 314 0.0 0.0 0.00 0.02 0.02 87 1015.8
20260503173834 55 168 1.0 2.0 0.00 0.02 0.02 87 1015.8
20260503173331 56 309 0.0 1.0 0.00 0.02 0.02 87 1015.8
20260503172827 55 219 0.0 0.0 0.00 0.02 0.02 87 1015.8
20260503172326 56 272 0.0 1.0 0.00 0.02 0.02 86 1015.8
20260503171821 55 249 0.0 0.0 0.00 0.02 0.02 86 1016.1
20260503171318 55 256 0.0 1.0 0.00 0.02 0.02 86 1015.8
20260503170816 55 274 0.0 0.0 0.00 0.02 0.02 87 1015.8
20260503170312 55 294 0.0 0.0 0.00 0.02 0.02 88 1015.8
20260503150704 53 276 0.0 1.0 0.00 0.02 0.02 97 1015.4
20260503150200 53 322 0.0 0.0 0.00 0.02 0.02 97 1015.1
20260503140125 53 300 0.0 0.0 0.00 0.00 0.00 96 1014.8
20260503131054 53 265 0.0 0.0 0.00 0.00 0.00 95 1014.1
20260503130551 53 263 0.0 0.0 0.00 0.00 0.00 94 1013.7
20260503110442 54 82 0.0 0.0 0.00 0.00 0.00 86 1013.7
20260503090333 55 90 1.0 1.0 0.00 0.00 0.00 84 1014.1
20260503081300 55 81 0.0 0.0 0.00 0.00 0.00 85 1014.1
20260503080756 55 48 0.0 0.0 0.00 0.00 0.00 85 1014.4
20260503080254 55 56 0.0 0.0 0.00 0.00 0.00 85 1014.1
20260503072730 55 81 0.0 1.0 0.00 0.00 0.00 84 1014.4
20260503072227 55 52 0.0 0.0 0.00 0.00 0.00 85 1014.1
20260503071723 55 27 0.0 0.0 0.00 0.00 0.00 85 1014.1
20260503071220 55 76 0.0 0.0 0.00 0.00 0.00 85 1014.4
20260503070717 55 62 0.0 0.0 0.00 0.00 0.00 85 1014.4
20260503070215 55 67 0.0 0.0 0.00 0.00 0.00 85 1014.1
20260503060139 55 40 0.0 0.0 0.00 0.00 0.00 85 1014.4
20260503054626 55 45 0.0 0.0 0.00 0.00 0.00 85 1014.4
20260503054124 55 46 0.0 0.0 0.00 0.00 0.00 84 1014.4
20260503053622 55 49 0.0 0.0 0.00 0.00 0.00 84 1014.4
20260503053120 55 77 0.0 0.0 0.00 0.00 0.00 84 1014.4
20260503052616 55 28 0.0 1.0 0.00 0.00 0.00 84 1014.8
20260503052113 55 27 0.0 0.0 0.00 0.00 0.00 84 1014.4
20260503051608 55 30 0.0 0.0 0.00 0.00 0.00 84 1014.8
20260503051106 55 47 0.0 0.0 0.00 0.00 0.00 84 1014.8
20260503050602 55 10 0.0 0.0 0.00 0.00 0.00 84 1014.8
20260503050059 55 61 0.0 0.0 0.00 0.00 0.00 84 1014.8
20260503045556 55 49 0.0 0.0 0.00 0.00 0.00 83 1014.8
20260503045053 55 52 0.0 0.0 0.00 0.00 0.00 83 1014.4
20260503044550 55 60 0.0 0.0 0.00 0.00 0.00 83 1014.8
20260503044048 55 56 0.0 0.0 0.00 0.00 0.00 83 1014.8
20260503043543 55 52 0.0 0.0 0.00 0.00 0.00 83 1014.8
20260503043040 55 49 0.0 0.0 0.00 0.00 0.00 83 1014.8
20260503042537 55 48 0.0 0.0 0.00 0.00 0.00 82 1014.4
20260503042033 55 47 0.0 0.0 0.00 0.00 0.00 82 1014.8
20260503041530 55 50 0.0 0.0 0.00 0.00 0.00 81 1014.8
20260503041028 55 15 0.0 0.0 0.00 0.00 0.00 81 1014.8
20260503040525 55 50 0.0 0.0 0.00 0.00 0.00 82 1014.4
20260503040023 55 58 0.0 0.0 0.00 0.00 0.00 82 1014.4
20260503035519 55 76 0.0 1.0 0.00 0.00 0.00 82 1014.4
20260503035017 55 82 0.0 0.0 0.00 0.00 0.00 83 1014.4
20260503034514 55 53 0.0 0.0 0.00 0.00 0.00 82 1014.4
20260503034011 55 28 0.0 0.0 0.00 0.00 0.00 82 1014.1
20260503033508 55 56 0.0 0.0 0.00 0.00 0.00 82 1014.4
20260503033006 55 73 0.0 0.0 0.00 0.00 0.00 83 1014.1
20260503032504 55 84 0.0 1.0 0.00 0.00 0.00 83 1014.4
20260503032002 55 60 0.0 0.0 0.00 0.00 0.00 83 1014.1
20260503031500 55 64 0.0 0.0 0.00 0.00 0.00 83 1014.1
20260503030956 55 74 0.0 0.0 0.00 0.00 0.00 82 1014.1
20260503030452 55 43 0.0 0.0 0.00 0.00 0.00 82 1014.1
20260503025949 55 72 0.0 0.0 0.00 0.00 0.00 82 1014.1
20260503025446 55 36 0.0 0.0 0.00 0.00 0.00 83 1014.1
20260503024943 55 53 0.0 0.0 0.00 0.00 0.00 83 1014.1
20260503024440 55 53 0.0 0.0 0.00 0.00 0.00 83 1014.1
20260503023937 55 61 0.0 0.0 0.00 0.00 0.00 82 1014.1
20260503023434 55 54 0.0 0.0 0.00 0.00 0.00 83 1014.1
20260503022931 56 79 0.0 0.0 0.00 0.00 0.00 82 1013.7
20260503022426 56 43 0.0 1.0 0.00 0.00 0.00 82 1014.1
20260503021922 56 42 0.0 0.0 0.00 0.00 0.00 82 1013.7
20260503021418 56 67 0.0 0.0 0.00 0.00 0.00 82 1014.1
20260503020916 56 30 0.0 1.0 0.00 0.00 0.00 81 1014.1
20260503020414 56 40 0.0 0.0 0.00 0.00 0.00 81 1013.7
20260503015909 56 46 0.0 0.0 0.00 0.00 0.00 81 1013.7
20260503015407 56 39 0.0 0.0 0.00 0.00 0.00 83 1013.7
20260503014903 56 58 0.0 0.0 0.00 0.00 0.00 82 1014.1
20260503014400 57 36 1.0 1.0 0.00 0.00 0.00 83 1013.7
20260503013858 57 42 0.0 1.0 0.00 0.00 0.00 82 1014.1
20260503013354 57 39 0.0 0.0 0.00 0.00 0.00 82 1014.1
20260503012852 57 53 0.0 0.0 0.00 0.00 0.00 82 1014.1
20260503012349 57 61 0.0 0.0 0.00 0.00 0.00 82 1014.1
20260503011846 57 48 0.0 0.0 0.00 0.00 0.00 81 1014.1
20260503011343 57 10 1.0 1.0 0.00 0.00 0.00 82 1014.1
20260503010839 57 17 0.0 1.0 0.00 0.00 0.00 83 1014.1
20260503010337 57 41 0.0 0.0 0.00 0.00 0.00 82 1014.1
20260503005833 57 33 1.0 1.0 0.00 0.00 0.00 82 1014.1
20260503005331 58 12 0.0 1.0 0.00 0.00 0.00 82 1014.1
20260503004827 58 40 0.0 0.0 0.00 0.00 0.00 81 1014.1
20260503004325 57 50 0.0 0.0 0.00 0.00 0.00 82 1014.1
20260503003822 57 73 2.0 2.0 0.00 0.00 0.00 81 1014.1
20260503003319 58 1 0.0 0.0 0.00 0.00 0.00 81 1014.1
20260503002816 58 2 1.0 1.0 0.00 0.00 0.00 82 1014.1
20260503002313 58 44 0.0 0.0 0.00 0.00 0.00 82 1014.1
20260503001809 58 53 0.0 1.0 0.00 0.00 0.00 81 1014.1
20260503001305 58 86 0.0 1.0 0.00 0.00 0.00 80 1014.1
20260503000803 59 38 0.0 1.0 0.00 0.00 0.00 80 1014.1
20260503000300 59 25 0.0 0.0 0.00 0.00 0.00 79 1014.4
20260502235757 59 330 0.0 0.0 0.00 0.00 0.00 80 1014.4
20260502235255 59 14 1.0 1.0 0.00 0.00 0.00 80 1014.4
20260502234751 59 41 1.0 1.0 0.00 0.00 0.00 80 1014.1
20260502234248 59 19 1.0 1.0 0.00 0.00 0.00 80 1014.1
20260502233744 59 352 1.0 1.0 0.00 0.00 0.00 80 1014.1
20260502233241 59 26 0.0 0.0 0.00 0.00 0.00 80 1014.4
20260502232737 59 346 0.0 1.0 0.00 0.00 0.00 79 1014.4
20260502232234 59 347 0.0 0.0 0.00 0.00 0.00 79 1014.1
20260502231731 60 41 0.0 0.0 0.00 0.00 0.00 80 1014.4
20260502231228 59 357 0.0 1.0 0.00 0.00 0.00 82 1014.1
20260502230727 59 25 0.0 0.0 0.00 0.00 0.00 80 1014.4
20260502230225 59 44 1.0 1.0 0.00 0.00 0.00 81 1014.4
20260502225721 59 354 1.0 1.0 0.00 0.00 0.00 80 1014.4
20260502225218 59 33 0.0 1.0 0.00 0.00 0.00 80 1014.8
20260502224714 59 51 0.0 0.0 0.00 0.00 0.00 79 1015.1
20260502224211 59 0 0.0 1.0 0.00 0.00 0.00 81 1015.1
20260502223708 59 66 0.0 1.0 0.00 0.00 0.00 80 1015.1
20260502223207 59 0 0.0 0.0 0.00 0.00 0.00 81 1015.1
20260502222704 59 345 0.0 1.0 0.00 0.00 0.00 81 1015.1
20260502222201 59 351 0.0 0.0 0.00 0.00 0.00 81 1015.1
20260502221656 58 11 1.0 1.0 0.00 0.00 0.00 82 1015.4
20260502221153 58 74 1.0 1.0 0.00 0.00 0.00 82 1015.4
20260502220649 59 9 1.0 1.0 0.00 0.00 0.00 83 1015.8
20260502220146 58 3 0.0 0.0 0.00 0.00 0.00 83 1015.8
20260502215643 58 36 0.0 0.0 0.00 0.00 0.00 82 1015.8
20260502215139 58 335 1.0 1.0 0.00 0.00 0.00 82 1015.8
20260502214637 59 340 0.0 1.0 0.00 0.00 0.00 82 1015.8
20260502214134 59 344 1.0 1.0 0.00 0.00 0.00 82 1015.8
20260502213631 59 346 1.0 1.0 0.00 0.00 0.00 82 1015.8
20260502213128 60 351 1.0 1.0 0.00 0.00 0.00 82 1016.1
20260502212627 60 258 0.0 1.0 0.00 0.00 0.00 80 1016.1
20260502212120 61 347 1.0 1.0 0.00 0.00 0.00 78 1015.8
20260502211620 61 25 0.0 0.0 0.00 0.00 0.00 79 1015.8
20260502211112 61 27 1.0 2.0 0.00 0.00 0.00 77 1016.1
20260502210609 61 19 1.0 2.0 0.00 0.00 0.00 76 1016.1
20260502210106 61 114 0.0 1.0 0.00 0.00 0.00 76 1016.1
20260502205603 62 14 0.0 0.0 0.00 0.00 0.00 76 1016.1
20260502205100 62 96 2.0 3.0 0.00 0.00 0.00 74 1016.1
20260502204556 62 354 1.0 2.0 0.00 0.00 0.00 75 1016.1
20260502204054 61 305 1.0 1.0 0.00 0.00 0.00 77 1015.8
20260502203551 61 12 0.0 1.0 0.00 0.00 0.00 77 1016.1
20260502203048 61 49 0.0 0.0 0.00 0.00 0.00 77 1016.1
20260502202544 60 330 1.0 2.0 0.00 0.00 0.00 78 1016.4
20260502202042 60 353 0.0 1.0 0.00 0.00 0.00 79 1016.8
20260502201538 60 338 0.0 1.0 0.00 0.00 0.00 79 1016.8
20260502201035 61 40 0.0 1.0 0.00 0.00 0.00 80 1016.8
20260502200530 60 5 3.0 3.0 0.00 0.00 0.00 80 1016.8
20260502200029 60 349 2.0 2.0 0.00 0.00 0.00 80 1016.8
20260502195526 60 0 0.0 0.0 0.00 0.00 0.00 81 1016.4
20260502195021 60 88 1.0 1.0 0.00 0.00 0.00 80 1016.8
20260502194519 59 52 0.0 1.0 0.00 0.00 0.00 82 1016.8
20260502194015 59 12 0.0 1.0 0.00 0.00 0.00 83 1017.1
20260502193512 59 29 0.0 1.0 0.00 0.00 0.00 82 1016.8
20260502193009 59 76 0.0 1.0 0.00 0.00 0.00 82 1017.1
20260502192505 59 63 0.0 1.0 0.00 0.00 0.00 80 1017.1
20260502192003 59 340 1.0 2.0 0.00 0.00 0.00 79 1017.1
20260502191500 60 258 1.0 1.0 0.00 0.00 0.00 78 1017.1
20260502190957 60 337 1.0 1.0 0.00 0.00 0.00 77 1016.8
20260502190454 60 229 1.0 1.0 0.00 0.00 0.00 79 1017.1
20260502185950 59 27 1.0 1.0 0.00 0.00 0.00 79 1017.1
20260502185446 59 21 1.0 1.0 0.00 0.00 0.00 77 1017.1